Temperature
2 2 2 2 2 2 2 2 2 2 2 2 2 2 2 2 2 3 3 3 3 3 3 3 3 2 2 2 2 2 2 2 1 2 2 2 2 2 2 2 2 2 2
1 1 1 1 1 1 1 1 1 1 2 2 2 2 2 2 2 2 2 2 2 2 2 2 2 2 2 2 2 2 2 1 1 1 2 2 1 1 2 1 1 1 1
1 1 1 1 1 1 1 1 1 1 1 1 1 1 1 1 1 2 2 2 2 2 2 2 1 1 1 1 1 1 1 1 1 1 1 1 1 1 1 1 1 1 1
0 0 0 0 0 0 0 0 0 0 0 0 1 1 1 1 1 1 1 1 1 1 1 1 1 1 1 1 1 1 1 1 1 1 1 1 1 1 0 0 0 1 1
-0 -0 -0 -0 -0 -0 -0 -0 -0 0 0 0 0 0 0 0 0 0 0 0 0 0 1 0 0 0 0 0 0 0 0 0 0 0 0 0 0 -0 -0 -0 -0 -0 0
-1 -1 -1 -1 -1 -1 -1 -0 -0 -0 -0 -0 -0 -0 -0 -0 -0 -0 -1 -0 -0 -0 -0 0 0 0 0 0 0 0 0 0 0 -0 -0 -0 -0 -0 -1 -1 -1 -1 -1
-1 -1 -1 -1 -1 -1 -1 -1 -1 -1 -1 -1 -1 -1 -0 -1 -1 -1 -1 -1 -1 -1 -1 -0 -0 -0 -0 -0 -0 -0 -0 -0 -1 -1 -0 -0 -1 -1 -1 -1 -1 -1 -1
-1 -2 -1 -1 -1 -1 -1 -1 -1 -1 -1 -1 -1 -1 -1 -1 -1 -1 -1 -1 -1 -1 -1 -1 -1 -1 -1 -1 -1 -0 -1 -1 -1 -1 -1 -1 -1 -1 -1 -1 -1 -2 -1
-2 -2 -2 -2 -2 -2 -2 -2 -2 -2 -2 -1 -1 -1 -2 -2 -2 -2 -2 -2 -2 -2 -2 -2 -2 -2 -1 -1 -1 -1 -1 -1 -1 -1 -1 -1 -1 -1 -2 -2 -2 -2 -2
-2 -2 -2 -2 -2 -2 -2 -2 -2 -2 -2 -2 -2 -2 -2 -2 -2 -2 -2 -3 -3 -2 -2 -2 -2 -2 -2 -2 -2 -2 -2 -2 -1 -1 -2 -2 -2 -2 -2 -2 -2 -2 -2
-3 -3 -3 -3 -3 -3 -3 -3 -3 -2 -2 -2 -3 -3 -3 -3 -3 -3 -3 -3 -3 -3 -3 -3 -3 -3 -3 -3 -3 -2 -2 -2 -2 -2 -2 -2 -2 -2 -2 -2 -2 -3 -3
-3 -3 -3 -3 -3 -3 -3 -3 -3 -3 -3 -3 -3 -3 -3 -3 -3 -3 -4 -4 -4 -3 -3 -3 -3 -3 -3 -3 -3 -3 -3 -3 -3 -3 -3 -3 -3 -3 -3 -3 -3 -3 -3
-3 -3 -3 -3 -3 -3 -3 -3 -3 -4 -4 -4 -4 -4 -4 -4 -4 -4 -4 -4 -4 -4 -4 -4 -4 -4 -4 -3 -3 -3 -3 -3 -3 -3 -3 -3 -3 -3 -3 -3 -3 -3 -3
-4 -4 -4 -4 -4 -4 -4 -4 -4 -4 -4 -4 -4 -4 -4 -4 -4 -4 -4 -4 -4 -4 -4 -4 -4 -4 -4 -4 -4 -4 -4 -4 -4 -4 -4 -4 -4 -4 -3 -3 -3 -3 -3
-4 -4 -4 -4 -4 -4 -4 -5 -5 -5 -5 -5 -5 -5 -5 -5 -5 -5 -5 -4 -4 -4 -4 -4 -4 -4 -4 -4 -4 -4 -4 -4 -4 -4 -4 -4 -4 -4 -4 -4 -4 -4 -4
-4 -4 -4 -4 -5 -5 -5 -5 -5 -5 -5 -5 -5 -5 -5 -5 -5 -5 -5 -5 -5 -5 -5 -5 -5 -5 -5 -5 -5 -5 -5 -5 -5 -5 -5 -5 -5 -4 -4 -4 -4 -4 -4
-5 -5 -5 -5 -5 -5 -5 -5 -5 -5 -5 -5 -5 -5 -5 -5 -5 -5 -5 -5 -5 -5 -5 -5 -5 -5 -5 -5 -5 -5 -5 -5 -5 -5 -5 -5 -5 -5 -5 -5 -4 -4 -4
-5 -5 -5 -5 -5 -5 -5 -5 -5 -5 -5 -5 -5 -5 -5 -5 -5 -5 -5 -5 -5 -5 -5 -5 -6 -6 -6 -6 -6 -6 -6 -6 -6 -6 -6 -6 -5 -5 -5 -5 -5 -5 -5
-5 -5 -5 -5 -5 -6 -6 -6 -6 -6 -6 -6 -5 -5 -5 -5 -5 -5 -5 -5 -5 -6 -6 -6 -6 -6 -6 -6 -6 -6 -6 -6 -6 -6 -6 -6 -6 -6 -6 -5 -5 -5 -5
-6 -6 -6 -6 -6 -6 -6 -6 -6 -6 -6 -6 -6 -6 -6 -6 -6 -6 -6 -6 -6 -6 -6 -6 -6 -6 -6 -6 -6 -6 -6 -6 -6 -6 -6 -6 -6 -6 -6 -6 -6 -6 -5
-6 -6 -6 -6 -6 -6 -6 -6 -6 -6 -6 -6 -6 -6 -6 -6 -6 -6 -6 -6 -6 -7 -6 -6 -6 -6 -6 -6 -6 -6 -6 -6 -6 -6 -6 -6 -6 -6 -6 -6 -6 -6 -6
-6 -6 -6 -6 -6 -6 -6 -6 -6 -6 -6 -6 -6 -6 -6 -6 -7 -7 -7 -7 -7 -7 -7 -7 -6 -6 -6 -6 -6 -6 -6 -6 -6 -6 -6 -6 -6 -6 -6 -6 -6 -6 -6
-7 -7 -7 -7 -7 -7 -7 -7 -7 -7 -7 -7 -7 -7 -7 -7 -7 -7 -7 -7 -7 -7 -7 -7 -7 -6 -6 -6 -6 -6 -6 -6 -6 -6 -6 -6 -6 -6 -6 -6 -6 -6 -6
-7 -7 -7 -7 -7 -7 -7 -7 -7 -7 -7 -7 -7 -7 -7 -7 -7 -7 -7 -7 -7 -7 -7 -7 -7 -7 -7 -6 -6 -6 -6 -6 -6 -6 -7 -7 -6 -6 -6 -6 -6 -7 -7
-7 -7 -7 -7 -7 -7 -7 -7 -7 -7 -7 -7 -7 -7 -7 -7 -7 -7 -7 -7 -7 -7 -7 -7 -7 -7 -7 -7 -6 -6 -6 -6 -6 -7 -7 -7 -6 -6 -6 -7 -7 -7 -7
-7 -7 -7 -7 -7 -7 -7 -7 -7 -7 -7 -7 -8 -7 -7 -7 -7 -7 -7 -7 -7 -7 -7 -7 -7 -7 -7 -6 -6 -6 -6 -6 -6 -7 -6 -7 -6 -7 -7 -7 -7 -7 -7
Wind_Speed
2 2 2 2 2 1 2 2 2 2 2 2 3 2 3 3 3 4 4 4 4 4 4 4 5 4 4 4 3 3 4 4 5 5 3 3 3 3 5 6 7 7 8
3 2 2 2 1 1 2 3 2 2 2 2 2 2 2 2 3 4 4 4 5 5 5 4 5 4 5 4 4 4 4 4 4 6 4 3 3 3 3 4 5 6 7
3 2 2 2 2 2 2 3 2 2 2 2 2 2 3 3 3 4 4 5 5 5 5 5 6 5 5 4 5 5 4 4 4 4 5 3 2 2 3 4 4 5 6
3 3 3 3 3 3 3 2 2 2 2 2 2 3 3 3 4 4 3 4 5 5 5 5 6 6 6 6 5 5 4 4 3 4 4 3 3 2 2 3 4 4 5
3 3 3 3 3 3 2 2 2 2 2 2 2 2 3 3 3 3 3 3 4 4 4 4 5 6 7 6 5 5 5 4 4 4 4 3 3 2 3 3 5 5 4
2 3 3 3 3 3 2 2 2 2 2 2 2 2 2 3 4 4 2 2 2 2 2 2 3 4 5 6 7 6 6 5 5 4 4 5 5 4 3 4 4 4 4
2 2 3 3 3 3 3 2 2 2 2 2 2 1 2 3 4 3 3 1 1 2 2 2 2 2 3 2 3 4 5 6 6 5 5 5 5 4 4 4 4 5 5
2 3 3 3 3 3 3 2 2 2 1 1 1 1 2 3 4 3 3 1 1 1 2 2 2 2 2 2 1 2 2 3 4 4 4 5 5 4 4 4 4 5 4
2 3 3 3 3 3 3 3 2 1 2 1 1 1 1 3 3 3 3 0 0 1 2 2 1 2 3 3 1 2 2 2 3 4 5 5 6 6 4 2 2 3 4
3 2 2 2 2 2 2 2 2 1 1 2 2 1 1 2 3 3 2 0 0 1 1 1 3 3 4 4 1 1 2 3 2 2 3 4 3 3 4 2 3 3 4
3 2 2 2 2 2 2 2 2 2 2 2 2 2 2 2 3 3 2 1 0 1 1 2 2 4 4 4 3 1 3 3 1 2 2 2 2 2 1 1 1 3 4
3 3 3 3 2 2 2 2 2 2 2 2 2 2 2 2 3 3 3 2 2 1 1 1 2 4 4 4 3 3 4 3 1 1 1 2 2 2 2 1 1 1 3
3 3 3 3 3 2 2 2 2 2 1 2 2 2 2 2 2 4 4 3 3 1 1 2 3 4 4 3 4 5 4 2 1 1 2 2 2 2 2 2 2 2 2
3 3 3 3 3 3 2 2 1 1 1 2 2 2 2 2 2 2 1 2 2 2 1 2 4 4 4 4 4 4 2 2 1 1 2 2 2 2 2 2 2 3 3
3 3 3 3 3 3 3 2 2 1 1 2 2 1 2 2 3 4 2 1 0 0 1 1 2 2 2 3 3 3 3 2 2 2 2 2 2 2 2 2 2 2 2
2 3 3 3 2 2 2 3 5 4 5 5 4 3 3 4 5 5 4 4 3 2 2 2 2 2 2 2 2 3 2 3 3 2 2 2 2 3 3 2 2 2 2
2 2 2 2 2 2 2 2 3 5 6 6 6 6 5 5 5 5 4 4 3 3 2 1 1 1 2 2 2 2 2 3 2 2 2 2 2 3 3 3 2 2 2
2 2 2 2 2 2 2 2 2 3 4 4 5 7 6 6 5 4 4 3 2 2 1 1 1 1 2 2 2 2 3 3 2 2 2 2 2 2 2 3 2 3 3
2 2 2 2 2 2 2 2 2 2 2 3 3 5 6 5 5 4 4 2 1 1 1 1 1 1 2 2 2 2 3 3 3 2 2 2 2 2 2 2 3 4 3
2 3 2 2 2 2 2 2 2 2 2 3 3 4 3 3 2 3 2 2 1 1 1 2 2 2 2 2 2 2 3 3 3 2 2 2 2 2 2 2 2 3 3
2 2 3 2 2 2 2 2 2 2 2 3 3 4 4 2 2 2 2 2 2 2 2 2 2 2 2 2 2 3 3 3 3 3 3 3 3 2 2 2 2 2 3
1 1 2 2 2 2 2 2 2 2 3 3 3 4 4 2 2 2 2 2 2 2 3 2 2 2 2 2 2 3 3 3 3 3 3 3 2 2 2 2 2 2 2
1 1 2 2 2 3 3 2 2 2 2 2 3 3 3 2 2 2 2 2 2 3 3 2 3 3 3 3 3 3 3 3 3 3 3 3 2 2 2 2 3 3 3
1 1 1 2 2 1 2 2 2 2 2 2 2 2 2 2 3 3 3 3 3 3 3 3 3 4 5 4 3 3 4 4 4 3 3 2 2 2 2 2 2 2 2
1 1 1 1 2 2 2 2 2 2 2 3 2 2 3 3 3 3 3 3 3 3 4 4 4 4 4 5 4 4 5 5 5 4 2 1 1 2 2 2 2 2 2
1 1 1 1 2 2 2 2 2 3 3 3 3 3 3 3 3 3 3 3 3 4 4 4 5 5 5 5 5 6 6 6 5 4 2 1 1 1 2 2 2 2 2
Wind_Direction
310 298 297 295 292 295 287 276 269 271 264 259 258 259 256 254 246 243 236 225 222 228 226 224 230 220 218 220 216 213 219 221 252 272 261 272 263 275 296 297 295 293 293
316 314 310 312 314 301 293 288 277 272 280 268 268 267 265 265 254 244 237 227 221 227 229 224 235 230 220 219 219 221 225 225 238 270 278 267 262 264 274 283 295 296 292
339 339 337 329 316 293 285 289 292 290 295 291 274 266 269 266 263 249 233 230 226 228 227 225 230 225 225 225 224 226 230 239 237 255 272 268 268 274 287 287 285 289 296
342 343 336 322 306 290 281 281 281 279 281 282 276 275 276 272 264 251 241 234 229 231 229 228 231 227 226 227 230 226 225 233 239 250 267 276 273 272 272 282 295 291 293
342 336 324 320 323 312 296 288 286 285 281 278 275 279 282 273 261 253 244 238 231 233 236 237 239 239 238 239 240 230 222 228 235 250 264 276 272 272 269 270 285 297 288
342 335 333 338 339 332 317 310 306 295 287 280 266 265 278 283 290 286 278 245 237 235 243 255 253 242 250 258 260 259 247 234 236 243 259 264 268 261 265 273 282 294 294
342 341 342 342 341 333 324 326 315 301 294 293 276 268 279 282 297 297 307 302 251 238 239 256 283 283 285 249 268 283 279 271 256 248 253 260 262 253 256 268 269 275 274
343 340 344 344 337 336 342 340 328 317 313 305 299 297 287 290 309 312 323 332 286 278 263 255 255 270 275 274 264 283 278 278 269 258 246 255 258 252 245 249 259 275 272
342 335 331 327 330 338 340 335 332 343 341 321 303 307 296 302 312 321 338 12 358 327 314 304 296 271 286 307 305 276 285 290 294 287 285 284 283 278 271 270 267 280 285
331 323 325 330 337 336 335 342 353 356 340 347 350 337 296 296 319 340 347 97 10 343 345 337 313 303 304 308 278 254 276 287 300 319 320 315 314 310 300 274 252 264 283
338 342 347 348 341 332 350 357 357 4 13 17 4 350 337 326 337 346 343 1 338 348 340 328 311 320 322 318 314 290 288 306 312 297 304 319 329 333 325 322 273 255 264
355 359 354 350 342 353 4 353 359 10 16 10 9 348 343 337 346 348 352 350 352 14 332 318 325 340 341 337 329 332 335 334 328 322 322 322 321 316 306 307 302 279 260
5 1 354 353 352 358 358 348 353 358 1 345 351 340 337 345 347 351 354 353 352 5 355 356 3 5 358 352 347 351 357 352 346 329 316 306 301 297 304 311 314 315 301
357 349 351 356 358 2 359 357 355 343 333 322 325 328 328 333 328 327 331 347 355 358 19 15 12 17 16 6 2 3 4 354 342 314 307 314 317 315 310 307 308 312 311
347 345 347 350 347 354 4 10 353 342 316 323 315 313 321 324 326 331 333 342 326 187 57 59 41 27 21 10 8 7 3 1 354 340 329 329 328 326 317 310 300 310 305
340 346 344 343 342 346 354 2 15 10 5 360 352 343 335 328 334 342 350 359 6 33 57 64 36 22 8 355 355 357 356 351 341 335 337 334 329 330 330 326 315 307 306
330 329 333 341 344 345 347 349 348 360 7 8 5 360 353 348 353 356 6 19 23 41 61 61 24 0 346 341 340 339 333 329 329 334 337 333 329 330 333 333 329 323 319
330 333 334 332 334 334 336 338 339 340 344 348 351 353 354 359 3 5 10 27 30 32 47 29 342 328 320 321 325 324 322 325 328 330 329 328 328 324 326 331 335 333 324
331 328 327 326 323 323 328 332 332 331 329 329 335 343 351 357 7 16 26 41 36 3 349 333 318 306 303 307 307 305 306 309 319 323 322 322 320 316 317 323 324 328 331
328 332 335 331 329 334 335 333 329 329 332 333 332 331 338 354 8 8 16 17 6 337 321 308 306 302 299 297 299 302 305 312 321 320 318 320 314 310 316 322 329 330 327
327 328 338 340 331 326 326 324 321 327 329 326 323 325 336 358 357 346 342 337 324 312 306 300 298 298 295 294 293 297 301 307 311 312 315 318 318 318 320 324 325 326 328
316 319 324 321 318 321 320 323 326 323 321 317 322 329 342 354 341 326 320 316 314 308 301 297 292 293 291 286 284 289 295 298 302 305 310 314 316 323 326 328 331 331 333
315 318 323 325 320 324 337 335 328 322 320 321 324 327 332 332 323 315 308 308 312 312 316 312 304 305 307 297 282 278 281 285 290 291 298 307 319 328 330 332 333 331 332
310 313 316 317 324 329 331 333 332 327 323 317 317 317 317 318 317 312 309 309 308 311 314 313 307 303 304 309 305 297 294 296 293 284 282 288 300 311 316 320 319 317 317
332 323 321 321 322 324 326 326 325 325 322 319 314 311 312 312 310 310 315 313 314 315 314 315 313 310 307 309 312 310 305 303 304 299 279 272 284 295 303 308 309 315 324
327 320 320 322 320 317 315 312 314 316 313 310 306 301 302 303 302 305 309 311 317 319 318 316 314 315 315 314 310 309 307 306 304 300 294 269 290 301 306 308 310 316 325
Height
1455 1454 1454 1453 1453 1453 1453 1453 1453 1453 1454 1454 1455 1455 1456 1457 1458 1458 1459 1459 1460 1461 1462 1463 1464 1465 1466 1467 1468 1468 1468 1468 1466 1465 1465 1465 1465 1464 1463 1463 1462 1461 1459
1452 1452 1451 1451 1451 1450 1450 1450 1450 1450 1451 1451 1451 1452 1452 1453 1453 1454 1454 1455 1455 1456 1457 1458 1459 1460 1461 1462 1463 1463 1463 1463 1463 1460 1460 1460 1460 1460 1459 1458 1457 1456 1454
1450 1449 1448 1448 1448 1447 1447 1447 1447 1447 1447 1448 1448 1448 1449 1449 1449 1449 1450 1450 1451 1452 1453 1453 1454 1455 1456 1457 1458 1458 1458 1458 1458 1456 1455 1455 1455 1455 1454 1453 1452 1451 1449
1448 1446 1445 1445 1445 1445 1445 1445 1445 1445 1444 1444 1444 1444 1445 1445 1445 1445 1445 1445 1446 1447 1448 1449 1449 1450 1451 1452 1452 1453 1453 1453 1453 1452 1451 1450 1450 1450 1449 1448 1446 1445 1444
1445 1444 1443 1443 1442 1442 1442 1442 1442 1441 1441 1441 1441 1441 1441 1441 1442 1441 1441 1441 1442 1442 1443 1444 1445 1446 1446 1447 1447 1447 1448 1448 1447 1447 1446 1445 1445 1445 1445 1444 1442 1440 1439
1443 1443 1442 1441 1440 1439 1439 1439 1439 1438 1438 1438 1437 1437 1437 1438 1438 1438 1438 1438 1438 1438 1439 1439 1440 1441 1442 1442 1442 1443 1443 1443 1443 1442 1442 1441 1441 1441 1441 1439 1438 1436 1434
1442 1441 1440 1439 1438 1437 1436 1436 1435 1435 1435 1434 1434 1434 1434 1435 1435 1435 1435 1435 1434 1435 1435 1435 1436 1436 1437 1437 1437 1437 1438 1438 1439 1439 1438 1437 1437 1437 1436 1435 1434 1432 1431
1440 1439 1438 1437 1436 1435 1435 1434 1433 1433 1432 1432 1432 1432 1432 1432 1432 1431 1431 1431 1431 1431 1431 1432 1432 1432 1432 1432 1432 1432 1432 1433 1434 1434 1433 1433 1433 1432 1432 1431 1430 1428 1427
1439 1438 1437 1436 1435 1434 1433 1432 1432 1431 1430 1430 1429 1429 1429 1429 1429 1429 1428 1428 1428 1428 1428 1428 1428 1428 1428 1428 1428 1428 1428 1429 1429 1429 1429 1429 1428 1428 1428 1427 1426 1424 1422
1438 1437 1436 1435 1433 1432 1432 1431 1430 1429 1428 1428 1428 1428 1427 1427 1426 1426 1426 1425 1425 1425 1425 1425 1426 1426 1426 1426 1425 1425 1425 1425 1425 1424 1425 1424 1424 1424 1424 1423 1422 1421 1419
1437 1436 1435 1433 1432 1431 1430 1429 1428 1427 1427 1426 1425 1426 1425 1425 1424 1424 1424 1423 1423 1422 1422 1422 1423 1423 1423 1423 1423 1423 1422 1422 1421 1421 1421 1421 1420 1420 1419 1419 1418 1418 1416
1436 1435 1434 1433 1431 1430 1429 1428 1427 1426 1425 1424 1424 1424 1424 1423 1423 1422 1422 1421 1421 1421 1421 1421 1421 1421 1421 1421 1421 1420 1419 1419 1418 1418 1418 1417 1417 1416 1416 1415 1415 1414 1413
1435 1434 1433 1432 1430 1429 1428 1427 1426 1425 1424 1423 1423 1422 1421 1421 1421 1421 1420 1420 1420 1420 1419 1419 1419 1419 1418 1418 1418 1417 1417 1416 1416 1415 1414 1414 1414 1413 1412 1412 1411 1410 1409
1434 1433 1432 1431 1429 1428 1427 1426 1425 1424 1423 1422 1421 1421 1420 1420 1420 1419 1419 1418 1418 1418 1418 1418 1418 1417 1416 1416 1416 1415 1415 1414 1413 1413 1412 1412 1411 1410 1410 1409 1408 1407 1406
1433 1432 1431 1430 1429 1427 1427 1426 1425 1424 1423 1422 1421 1420 1419 1418 1419 1418 1418 1417 1417 1417 1416 1416 1415 1415 1415 1414 1414 1414 1413 1412 1412 1411 1410 1410 1409 1408 1407 1406 1405 1404 1403
1432 1431 1430 1429 1428 1427 1426 1425 1424 1423 1422 1421 1421 1420 1419 1418 1418 1417 1417 1416 1416 1416 1415 1414 1414 1414 1413 1413 1413 1412 1411 1411 1410 1409 1409 1408 1407 1406 1405 1404 1403 1402 1401
1432 1431 1430 1428 1427 1426 1425 1424 1423 1423 1422 1421 1420 1419 1418 1417 1417 1416 1415 1415 1415 1414 1413 1413 1413 1412 1412 1412 1411 1411 1410 1409 1409 1408 1407 1406 1405 1404 1403 1402 1401 1400 1399
1431 1430 1429 1428 1427 1425 1424 1423 1422 1421 1420 1419 1419 1418 1417 1416 1415 1415 1414 1414 1413 1413 1412 1412 1412 1411 1411 1410 1410 1409 1409 1408 1407 1406 1405 1405 1404 1403 1402 1401 1399 1399 1397
1430 1429 1428 1427 1426 1425 1424 1423 1422 1421 1419 1418 1417 1417 1416 1415 1414 1413 1413 1412 1411 1411 1411 1411 1410 1410 1410 1409 1409 1408 1408 1407 1406 1405 1404 1403 1402 1401 1400 1399 1398 1397 1396
1428 1428 1427 1426 1425 1424 1423 1422 1421 1420 1419 1417 1416 1415 1414 1414 1413 1412 1412 1411 1411 1410 1410 1410 1409 1409 1408 1408 1407 1407 1406 1405 1404 1403 1402 1401 1401 1400 1399 1398 1397 1396 1395
1427 1426 1426 1425 1424 1423 1422 1421 1420 1419 1418 1417 1416 1415 1414 1413 1412 1411 1411 1410 1410 1410 1409 1409 1408 1408 1407 1406 1406 1405 1404 1403 1403 1402 1401 1400 1399 1398 1398 1397 1396 1395 1395
1426 1425 1424 1423 1423 1422 1421 1420 1419 1418 1417 1416 1415 1415 1414 1413 1412 1411 1410 1410 1409 1409 1408 1408 1407 1406 1406 1405 1404 1403 1403 1402 1401 1400 1400 1399 1398 1397 1397 1396 1396 1395 1394
1425 1424 1423 1422 1421 1421 1420 1419 1418 1417 1417 1416 1415 1414 1413 1412 1411 1410 1410 1409 1408 1408 1407 1406 1405 1405 1404 1403 1403 1402 1401 1401 1400 1399 1398 1398 1397 1396 1396 1395 1395 1394 1393
1424 1423 1422 1421 1420 1420 1419 1418 1418 1417 1416 1415 1414 1413 1412 1411 1410 1409 1409 1408 1407 1406 1406 1405 1404 1403 1403 1402 1401 1400 1400 1399 1399 1398 1397 1397 1396 1395 1395 1394 1394 1393 1392
1423 1422 1421 1420 1420 1419 1418 1418 1417 1416 1415 1414 1413 1412 1411 1410 1409 1408 1407 1407 1406 1405 1404 1403 1402 1401 1401 1400 1399 1399 1398 1398 1397 1397 1396 1396 1395 1395 1394 1393 1393 1392 1392
1422 1421 1420 1419 1419 1418 1418 1417 1416 1415 1414 1413 1412 1411 1410 1409 1408 1407 1406 1405 1404 1403 1402 1402 1401 1400 1399 1399 1398 1398 1397 1397 1396 1396 1395 1395 1394 1394 1393 1393 1392 1392 1391